McAllen, TX

10:17 PM CDT on September 16, 2019 (GMT -0500)
McAllen Miller International

Weather History for KMFE - August, 2019

Change the Weather History Date:

Thursday, August 22, 2019

  Actual Average Record
Temperature  
Mean Temperature 91 °F 87 °F  
Max Temperature 103 °F 98 °F 105 °F (2018)
Min Temperature 79 °F 77 °F 64 °F (1946)
Degree Days  
Heating Degree Days 0 0  
Month to date heating degree days 0 0  
Since 1 June heating degree days 0 0  
Since 1 July heating degree days 0 0  
Cooling Degree Days 26 22  
Month to date cooling degree days 587 502  
Year to date cooling degree days 3489 3059  
Since 1 June cooling degree days 2016 1804  
Growing Degree Days 40 (Base 50)    
Moisture  
Dew Point 72 °F    
Average Humidity 59    
Maximum Humidity 85    
Minimum Humidity 33    
Precipitation  
Precipitation 0.00 in 0.09 in 2.19 in (1944)
Month to date precipitation 0.00 1.26  
Year to date precipitation 13.12 12.62  
Snow  
Snow 0.00 in - - ()
Month to date snowfall 0.0  
Since 1 June snowfall 0.0  
Since 1 July snowfall 0.0  
Snow Depth 0.00 in    
Sea Level Pressure  
Sea Level Pressure 29.87 in    
Wind  
Wind Speed 11 mph (SE)    
Max Wind Speed 23 mph    
Max Gust Speed 29 mph    
Visibility 10 miles    
Events      
T = Trace of Precipitation, MM = Missing Value Source: NWS Daily Summary

Daily Weather History Graph

Daily Weather History Graph

Search for Another Location

Airport or City:

Astronomy

Aug. 22, 2019 Rise Set
Actual Time 7:08 AM CDT 8:02 PM CDT
Civil Twilight 6:44 AM CDT 8:26 PM CDT
Nautical Twilight 6:16 AM CDT 8:54 PM CDT
Astronomical Twilight 5:47 AM CDT 9:23 PM CDT
Moon No Moon Rise 1:08 PM CDT (8/22)
Length of Visible Light 13h 41m
Length of Day
12h 54m
Waning Gibbous, 59% of the Moon is Illuminated
Aug 22
Waning Gibbous
Aug 23
Last Quarter
Aug 30
New
Sep 5
First Quarter
Sep 13
Full

Hourly Weather History & Observations

Time (CDT) Temp. Heat Index Dew Point Humidity Pressure Visibility Wind Dir Wind Speed Gust Speed Precip Events Conditions
12:53 AM 82.9 °F 90.2 °F 75.0 °F 77% 29.93 in 10.0 mi ESE 8.1 mph - N/A   Clear
1:53 AM 82.0 °F 88.6 °F 75.0 °F 79% 29.92 in 10.0 mi SE 8.1 mph - N/A   Clear
2:53 AM 82.0 °F 88.6 °F 75.0 °F 79% 29.91 in 10.0 mi SSE 4.6 mph - N/A   Mostly Cloudy
3:40 AM 81.0 °F 86.2 °F 73.9 °F 79% 29.91 in 10.0 mi SE 4.6 mph - N/A   Scattered Clouds
3:53 AM 81.0 °F 86.2 °F 73.9 °F 79% 29.90 in 10.0 mi SE 4.6 mph - N/A   Scattered Clouds
4:53 AM 80.1 °F 84.5 °F 73.9 °F 81% 29.90 in 10.0 mi ESE 6.9 mph - N/A   Clear
5:53 AM 79.0 °F - 73.9 °F 84% 29.88 in 10.0 mi SE 5.8 mph - N/A   Clear
6:53 AM 80.1 °F 84.5 °F 73.9 °F 81% 29.89 in 10.0 mi East 6.9 mph - N/A   Clear
7:53 AM 81.0 °F 86.7 °F 75.0 °F 82% 29.90 in 10.0 mi ESE 6.9 mph - N/A   Clear
8:53 AM 84.0 °F 91.9 °F 75.0 °F 74% 29.91 in 10.0 mi SSE 8.1 mph - N/A   Clear
9:53 AM 88.0 °F 95.6 °F 73.0 °F 61% 29.91 in 10.0 mi SSE 9.2 mph - N/A   Clear
10:53 AM 91.0 °F 98.2 °F 72.0 °F 53% 29.90 in 10.0 mi SSE 6.9 mph - N/A   Clear
11:53 AM 93.9 °F 100.8 °F 71.1 °F 47% 29.89 in 9.0 mi SE 6.9 mph - N/A   Partly Cloudy
12:53 PM 96.1 °F 102.9 °F 70.0 °F 43% 29.88 in 10.0 mi SSE 9.2 mph - N/A   Mostly Cloudy
1:53 PM 99.0 °F 104.2 °F 68.0 °F 36% 29.84 in 10.0 mi SE 11.5 mph - N/A   Partly Cloudy
2:53 PM 100.0 °F 105.6 °F 68.0 °F 35% 29.81 in 10.0 mi ESE 11.5 mph 18.4 mph N/A   Partly Cloudy
3:53 PM 100.0 °F 104.9 °F 66.9 °F 34% 29.78 in 10.0 mi East 11.5 mph - N/A   Partly Cloudy
4:53 PM 99.0 °F 105.5 °F 69.1 °F 38% 29.78 in 10.0 mi East 10.4 mph 21.9 mph N/A   Scattered Clouds
5:53 PM 98.1 °F 106.5 °F 71.1 °F 42% 29.77 in 10.0 mi ESE 19.6 mph 24.2 mph N/A   Clear
6:53 PM 96.1 °F 103.5 °F 71.1 °F 44% 29.78 in 10.0 mi ESE 19.6 mph 28.8 mph N/A   Clear
7:53 PM 91.9 °F 98.4 °F 71.1 °F 50% 29.80 in 10.0 mi ESE 17.3 mph 24.2 mph N/A   Clear
8:53 PM 89.1 °F 96.0 °F 72.0 °F 57% 29.83 in 10.0 mi ESE 19.6 mph - N/A   Clear
9:53 PM 87.1 °F 93.6 °F 72.0 °F 61% 29.87 in 10.0 mi ESE 17.3 mph - N/A   Clear
10:53 PM 86.0 °F 92.2 °F 72.0 °F 63% 29.88 in 10.0 mi SE 13.8 mph - N/A   Clear
11:53 PM 84.9 °F 92.1 °F 73.9 °F 69% 29.88 in 10.0 mi SE 13.8 mph - N/A   Clear